Location: Newark
(13.8117°N, 3.6025°W)
Time: 06:54:06
(UTC+00:00)

Explorer 7 - Visible Passes

Search period start: 26 August 2019 00:00
Search period end: 05 September 2019 00:00
Orbit: 485 x 680 km, 50.3° (Epoch: 25 August)

Date Brightness Start Highest point End Pass type
(mag) Time Alt. Az. Time Alt. Az. Time Alt. Az.
26 Aug 10.1 04:42:15 10° SE 04:43:00 10° SE 04:43:45 10° ESE visible
27 Aug 9.5 04:44:21 10° S 04:47:55 21° SE 04:51:32 10° ENE visible
28 Aug 8.4 04:48:46 12° SSW 04:52:51 39° SE 04:57:25 10° ENE visible
29 Aug 7.3 04:54:34 21° SSW 04:57:49 79° SE 05:02:43 10° NE visible
30 Aug 10.1 03:23:55 12° ESE 03:23:55 12° ESE 03:24:43 10° E visible
30 Aug 7.4 05:00:17 26° WSW 05:02:50 53° NW 05:07:37 10° NNE visible
31 Aug 9.7 03:29:32 19° E 03:29:32 19° E 03:31:25 10° ENE visible
31 Aug 8.3 05:05:55 21° W 05:07:55 29° NW 05:12:09 10° NNE visible
01 Sep 9.4 03:35:04 23° ENE 03:35:04 23° ENE 03:37:05 10° NE visible
01 Sep 9.0 05:11:26 14° WNW 05:13:06 16° NW 05:16:07 10° N visible
02 Sep 9.3 03:40:29 22° NE 03:40:29 22° NE 03:42:15 10° NE visible
03 Sep 9.6 03:45:48 17° NNE 03:45:48 17° NNE 03:47:01 10° NNE visible
04 Sep 9.8 03:51:02 12° N 03:51:02 12° N 03:51:23 10° N visible
